Wind_Speed
6 8 11 11 12 11 10 9 10 11 13 15 16 18 17 18 20 20 21 21 19 18 17 15 11 8 7 8 7 6 6 7 9 10 11 12 12 14 15 16 16 12 15
5 9 10 9 9 10 9 8 6 6 10 13 15 17 19 19 19 19 19 19 18 17 15 15 13 10 8 7 6 6 6 8 10 12 13 11 11 12 15 16 11 14 15
9 10 9 7 6 7 7 7 6 5 7 12 14 14 17 19 18 17 17 18 17 17 14 15 14 10 8 8 7 7 8 9 12 14 12 10 10 12 14 16 10 16 16
8 9 8 7 5 4 4 5 6 7 8 10 13 14 16 17 18 17 17 16 16 16 15 16 14 11 9 8 9 10 10 11 14 14 11 9 10 11 13 14 14 15 16
10 8 5 5 3 2 2 3 5 7 9 10 13 15 15 16 16 17 17 17 16 15 13 14 13 12 10 9 10 11 12 13 15 13 10 10 10 12 14 14 16 15 15
13 11 7 4 2 1 2 4 5 7 9 10 12 14 16 14 15 16 17 17 16 15 14 14 14 12 12 11 11 11 13 14 14 11 9 10 10 13 15 16 15 16 16
15 14 11 8 6 5 5 4 5 7 8 10 12 13 15 16 16 16 16 17 17 16 16 15 14 13 13 12 12 12 13 14 12 10 10 11 10 13 16 16 17 17 17
15 14 14 14 12 9 7 5 5 6 7 9 11 13 15 16 16 16 17 18 18 17 17 16 15 14 14 13 14 14 14 14 11 11 11 11 12 14 15 16 16 17 16
18 16 14 12 10 12 13 9 8 8 8 8 10 13 15 15 17 17 18 18 18 17 17 16 17 15 15 15 14 15 15 16 13 11 11 12 14 16 16 16 17 18 18
20 20 19 17 14 11 9 9 9 10 8 9 10 11 14 16 18 19 19 20 20 19 18 18 17 16 16 16 16 15 16 16 13 13 12 13 13 16 16 17 18 19 19
18 20 19 18 16 14 14 12 10 7 10 10 8 10 11 13 17 19 20 21 21 20 20 21 19 18 17 16 17 16 17 16 15 15 15 16 16 16 17 18 20 21 21
20 20 20 19 18 16 14 14 13 12 11 8 6 10 10 12 14 16 18 20 22 21 22 20 19 19 18 16 16 18 17 18 18 16 16 17 18 18 18 19 21 22 21
16 18 20 20 19 19 16 15 13 12 12 11 8 7 7 11 13 14 16 18 17 20 20 19 19 19 19 19 18 16 18 19 18 18 18 19 21 19 19 20 21 23 23
17 19 19 20 20 19 16 15 14 13 14 12 14 12 11 10 9 13 15 15 16 16 16 20 20 21 21 21 20 19 19 18 19 19 18 21 19 21 20 20 21 23 24
16 17 19 18 19 19 16 15 14 13 12 13 12 12 13 13 12 14 13 14 16 17 18 20 20 19 21 21 21 22 22 21 21 20 19 19 22 23 22 22 22 25 26
16 18 18 18 18 18 16 16 14 13 13 12 12 12 13 12 13 13 14 14 14 15 17 19 22 22 25 24 23 22 23 24 23 23 21 19 22 24 24 25 25 24 27
16 17 18 18 18 18 16 16 14 13 14 12 13 13 13 13 14 13 12 13 14 16 14 13 11 12 19 28 24 23 21 25 25 24 23 21 19 25 26 27 28 27 26
15 17 17 18 19 19 17 16 14 13 13 13 14 13 14 15 13 14 14 14 14 15 13 12 16 17 24 24 25 36 21 23 23 25 25 24 23 21 24 29 30 30 27
14 16 17 18 19 20 19 16 16 14 12 14 15 15 15 15 14 16 15 16 16 17 16 15 15 16 20 29 30 40 27 24 23 23 27 27 26 24 24 23 31 33 32
11 13 14 16 17 20 17 17 17 14 15 17 15 16 18 17 18 18 17 17 17 18 18 18 18 18 20 19 19 22 28 34 30 28 28 29 28 28 27 26 22 30 36
11 13 15 17 18 20 19 20 19 19 20 16 19 19 18 19 19 19 19 18 17 19 20 19 20 20 20 19 16 20 25 29 30 28 33 30 30 28 29 29 28 27 26
12 14 17 17 18 19 18 20 19 20 20 21 20 19 21 20 21 21 21 21 20 20 21 21 21 23 23 22 16 13 7 21 27 31 31 28 31 29 29 30 29 29 29
13 14 16 17 18 18 21 20 21 22 20 20 20 22 21 23 24 22 22 23 23 21 23 21 21 22 24 24 26 18 8 11 13 30 33 32 32 29 30 30 31 30 31
13 14 16 16 17 17 19 20 20 21 22 23 24 24 27 25 25 23 22 22 22 22 23 23 21 22 23 26 23 30 34 22 8 13 23 28 32 29 29 29 32 32 31
12 14 14 15 16 18 19 19 21 20 21 23 22 24 25 24 23 22 22 22 23 23 22 22 22 22 24 26 26 26 22 32 35 13 11 15 25 26 32 25 32 34 33
11 13 14 16 16 18 20 21 20 21 23 24 24 24 22 24 23 21 22 22 22 23 24 23 21 21 23 27 28 26 24 10 14 16 14 15 13 21 22 21 24 31 32
Wind_Direction
64 145 153 156 158 161 159 162 179 187 191 192 186 176 176 173 171 170 169 168 166 171 170 167 159 149 151 155 156 150 147 146 144 145 143 140 141 143 146 135 124 134 138
105 141 156 157 156 162 168 170 178 187 198 201 195 188 182 180 180 178 177 175 172 178 178 177 176 171 171 173 167 170 160 152 146 140 144 145 151 152 153 143 138 150 149
111 135 139 152 160 160 169 178 185 197 206 208 208 205 192 188 187 187 187 183 182 181 188 184 183 186 191 184 181 183 170 157 150 145 145 155 160 166 159 157 160 156 159
94 124 134 152 158 171 181 189 197 205 209 216 216 214 208 200 195 195 195 194 190 191 199 188 188 195 198 197 184 185 175 167 161 159 160 167 166 179 169 169 169 164 161
74 93 114 127 150 182 223 241 230 221 219 218 217 220 218 209 205 205 204 204 204 206 204 196 195 201 206 198 196 185 180 178 174 166 181 179 167 188 175 176 176 172 159
63 66 70 76 71 10 312 289 268 250 234 225 222 219 219 221 217 216 212 207 210 218 216 208 209 212 211 204 196 191 189 184 177 187 189 188 185 193 186 182 177 183 168
51 52 48 46 33 13 345 315 289 275 258 238 227 224 224 224 227 225 217 215 216 220 220 218 222 224 220 210 203 198 193 193 184 196 199 195 197 203 191 188 187 186 179
66 62 54 35 21 11 359 340 309 287 270 258 240 229 225 229 230 225 225 223 224 225 224 229 232 233 229 220 211 203 199 194 197 204 208 207 205 199 195 200 190 188 186
57 57 53 52 51 43 8 357 340 317 289 264 256 244 232 229 230 230 229 229 230 235 238 237 236 236 236 230 223 213 205 198 203 215 217 215 217 199 197 200 195 194 187
44 45 44 42 41 43 36 21 14 349 323 290 269 253 253 243 234 232 232 231 231 233 239 243 240 236 238 235 230 224 216 210 213 222 223 221 223 208 201 199 200 199 193
39 32 29 29 28 26 14 22 17 15 8 346 299 275 259 248 243 239 236 230 236 234 237 239 241 240 235 236 230 228 226 226 226 228 228 226 228 212 206 204 203 204 200
30 25 24 21 21 18 13 11 6 2 359 2 333 311 278 262 253 250 244 246 238 237 242 240 242 240 236 232 234 230 224 232 233 230 230 233 226 218 214 210 208 206 205
28 23 19 16 14 14 9 9 3 359 357 346 346 302 313 291 271 254 249 248 247 243 239 242 241 238 233 231 230 228 226 229 238 237 237 236 232 222 221 221 213 210 206
24 19 15 12 11 9 7 4 357 356 353 350 342 341 332 298 316 291 274 262 255 247 238 234 234 236 236 233 234 235 233 231 233 238 240 241 226 222 223 227 221 216 211
22 15 13 9 9 4 2 356 351 349 341 337 339 342 340 326 313 298 290 284 270 259 253 249 244 237 237 236 233 233 236 233 235 234 238 244 237 227 227 223 226 220 217
14 11 6 6 3 359 355 350 344 338 332 327 324 328 333 332 324 318 306 296 287 285 268 260 259 257 249 245 238 232 236 240 237 237 234 236 243 230 228 229 225 226 221
10 4 4 358 355 354 348 342 337 329 329 320 319 322 322 323 318 314 304 296 290 282 279 275 285 295 277 264 253 236 228 239 242 240 238 233 233 239 233 230 227 226 226
6 4 360 356 352 349 344 339 332 323 323 315 315 313 318 318 316 309 299 290 290 290 282 257 257 254 256 254 266 292 258 239 239 244 242 238 231 231 237 231 230 229 226
5 1 358 354 350 346 341 338 333 323 321 315 314 310 311 314 309 307 296 288 289 286 279 270 251 244 247 251 250 250 244 257 242 244 248 243 236 226 231 235 232 228 228
5 2 358 354 350 346 342 337 332 324 319 317 311 309 311 307 308 306 293 288 286 282 274 270 263 254 252 253 246 241 240 233 245 247 248 244 240 229 226 230 232 231 230
9 5 1 354 352 350 344 338 332 324 319 311 309 307 307 307 306 302 296 290 284 277 273 269 264 260 260 257 256 245 240 236 237 230 234 242 239 235 225 223 226 232 236
6 3 359 355 351 349 343 332 325 318 312 307 306 305 305 304 304 300 294 290 285 280 272 266 261 261 252 244 231 238 225 234 243 236 235 230 234 228 228 225 225 227 232
5 359 356 354 349 346 342 335 330 323 316 314 313 309 307 306 302 298 290 286 284 278 272 267 261 255 257 249 230 231 222 237 233 227 227 230 233 222 218 226 224 221 228
2 356 353 352 350 348 345 339 333 324 318 318 314 312 311 306 303 298 291 286 283 277 271 267 262 258 257 256 249 240 249 261 236 235 225 228 226 222 219 217 231 221 224
360 359 357 355 354 351 347 342 334 327 321 317 315 313 311 309 307 302 295 288 283 282 275 271 267 260 255 256 253 250 255 240 251 256 254 215 221 220 222 212 229 233 223
5 3 2 358 355 352 349 345 338 332 328 325 324 320 318 314 314 312 309 302 291 280 275 272 267 263 261 257 257 260 254 270 241 237 240 247 235 215 231 218 226 236 234
Height
790 791 792 794 796 799 800 801 802 801 801 802 801 800 800 801 800 800 801 801 803 805 805 807 808 810 811 811 811 811 811 811 811 812 813 815 816 817 818 819 819 821 822
791 793 793 795 797 798 799 801 803 803 803 803 804 803 802 802 803 803 803 802 803 805 806 806 808 809 810 811 812 812 811 812 812 813 815 816 818 819 819 820 821 822 824
791 793 795 796 798 799 800 800 802 803 804 805 805 806 805 805 805 805 806 805 805 805 806 807 808 809 810 809 811 812 812 813 813 814 816 818 819 819 820 821 822 823 825
793 795 796 796 798 800 801 800 800 801 803 805 806 807 807 807 807 807 807 807 807 807 807 807 808 809 809 811 810 811 812 813 813 815 816 818 819 820 821 822 823 824 825
796 798 798 798 800 800 801 801 801 801 802 803 805 807 807 808 808 808 808 809 809 809 808 808 808 808 809 810 811 811 812 813 814 815 815 817 818 819 821 822 824 825 826
799 800 799 800 800 801 801 802 802 802 802 802 804 804 806 809 808 809 809 809 810 810 810 809 809 809 809 809 810 811 812 813 815 816 815 816 817 818 820 822 824 826 827
802 803 803 802 802 802 802 802 802 802 802 802 803 804 804 806 807 808 810 810 808 809 809 809 810 810 810 810 811 811 812 814 815 816 816 816 817 818 819 821 823 826 826
801 802 803 804 804 803 802 802 802 802 802 802 802 802 802 804 806 807 808 808 808 807 808 810 810 811 810 811 811 811 812 814 816 816 816 816 816 818 820 821 822 825 826
804 804 805 804 804 803 804 803 803 802 801 800 800 800 800 801 803 806 806 805 806 807 808 808 809 810 811 811 812 812 811 813 815 815 816 815 814 816 818 819 822 822 824
808 808 807 807 806 805 804 804 803 802 801 800 800 799 799 799 800 801 802 803 803 804 806 807 808 808 810 811 812 813 813 813 814 814 815 813 814 815 816 817 820 821 823
812 812 810 809 808 807 806 804 803 802 802 800 798 798 797 797 798 798 800 800 801 802 803 805 806 806 807 808 809 810 812 813 812 812 812 811 813 815 815 815 817 819 821
816 816 814 813 811 809 808 806 806 805 802 799 797 798 796 794 794 795 797 797 798 799 801 802 803 804 805 806 806 806 808 809 809 808 809 809 811 813 814 815 816 817 820
823 822 819 817 815 812 810 808 808 806 804 800 798 796 794 793 792 792 793 794 795 796 798 799 800 802 802 802 801 803 804 805 806 805 806 806 808 810 812 813 814 815 817
825 825 823 821 818 815 814 811 810 807 805 804 800 797 795 793 792 791 791 790 790 792 792 792 793 794 797 797 798 799 800 800 801 802 803 803 804 806 809 811 812 813 815
827 827 825 823 820 818 816 813 810 807 807 805 803 800 797 793 791 790 788 788 787 786 787 787 788 788 791 792 793 795 796 796 797 798 798 799 802 802 804 806 809 810 812
829 827 825 823 821 819 817 815 811 809 806 805 803 800 797 795 793 791 788 786 785 784 783 783 785 786 788 789 786 788 789 791 792 794 794 794 796 798 799 802 804 806 808
831 830 827 824 822 820 818 815 812 810 807 804 801 799 797 795 793 791 789 786 784 782 781 781 779 784 786 785 778 777 777 783 786 788 790 790 789 792 795 796 799 800 804
833 830 828 826 823 820 818 815 813 810 807 805 801 798 795 793 792 789 786 784 782 780 780 779 778 777 781 779 770 773 776 777 778 782 785 785 784 785 788 790 793 796 798
835 832 829 827 824 820 817 815 812 809 807 804 800 797 795 792 789 787 785 782 779 777 775 776 776 775 775 769 762 771 765 769 772 775 780 781 780 778 781 783 786 789 793
836 834 831 828 825 821 817 814 811 808 805 802 799 796 792 790 788 785 782 779 777 774 772 771 771 771 769 765 765 762 757 759 763 766 770 773 774 773 774 778 780 783 785
836 833 831 829 826 821 818 814 810 807 803 800 797 794 791 788 785 782 779 776 774 771 769 768 765 764 761 760 761 757 753 754 755 752 761 765 765 767 768 770 773 777 779
835 833 831 828 825 822 819 815 811 806 802 797 794 791 788 785 782 779 776 773 770 768 765 764 763 760 756 755 753 753 747 748 749 752 754 753 757 757 761 763 765 768 772
833 831 829 827 825 822 818 813 808 804 798 794 791 787 784 782 779 775 772 769 766 764 760 759 759 757 752 748 748 744 741 736 734 738 743 744 750 746 748 754 757 758 763
833 832 830 826 824 820 817 813 810 805 799 795 790 785 781 778 774 771 768 765 761 759 755 754 753 752 751 743 743 739 734 730 726 727 730 735 739 739 740 741 751 750 753
834 831 828 826 823 820 817 813 809 804 800 794 789 784 779 774 770 766 763 760 757 754 751 749 748 747 744 741 737 737 733 730 729 727 725 725 730 729 733 727 740 744 744
832 831 828 826 823 819 816 812 808 804 798 792 787 782 777 772 766 762 758 755 752 749 746 744 743 741 740 737 733 732 730 726 719 721 723 721 719 722 725 722 728 736 739